Simultaneous Nadir Overpasses (SNOs) Predictions

Prediction of SNOs between GOES-15 and TERRA Satellite Orbit:

Table of predicted SNOs for the next 14.0 days since TLE Epoch: 6/23/2017
Index Date Time (GOES-15) GOES-15 Lat,Lon TERRA Lat,Lon Distance(km) Time Diff (sec)
1 06/25/2017 07:22:10 0.10,-135.43 0.51,-133.34 236.70 80
2 06/25/2017 19:46:05 -0.08,-135.48 0.56,-138.50 343.87 80
3 06/27/2017 19:33:53 -0.09,-135.48 -0.05,-135.54 7.80 80
4 06/29/2017 19:19:02 -0.10,-135.49 -0.72,-132.59 329.19 80
5 06/30/2017 07:43:05 0.07,-135.44 -0.44,-137.77 265.65 80
6 07/02/2017 07:28:14 0.08,-135.44 0.23,-134.82 70.58 80
7 07/04/2017 07:16:02 0.09,-135.43 0.86,-131.86 406.29 80
8 07/04/2017 19:39:57 -0.06,-135.48 0.28,-137.01 174.52 80
9 07/06/2017 19:25:05 -0.07,-135.47 -0.35,-134.05 160.39 80
10 07/07/2017 07:49:08 0.04,-135.42 -0.80,-139.23 434.85 80




NCC Satellite Simultaneous Nadir Overpasses (SNOs) Prediction Service
